Miscellaneous Local Product
Issued by NWS Hastings, NE

Home | Current Version | Previous Version | Graphics & Text | Print | Product List | Glossary On
Versions: 1 2 3 4 5 6 7 8 9 10 11 12 13 14 15 16 17 18 19 20 21 22 23 24 25 26 27 28 29 30 31 32 33 34 35 36 37 38 39 40 41 42 43 44 45 46 47 48 49 50
000
AXUS43 KGID 271002
MISGRI

GID CWA HOURLY WEATHER ROUNDUP
NATIONAL WEATHER SERVICE HASTINGS NE
500 AM CDT SUN JUL 27 2014

NOTE: "FAIR" INDICATES FEW OR NO CLOUDS BELOW 12,000 FEET WITH NO
SIGNIFICANT WEATHER AND/OR OBSTRUCTIONS TO VISIBILITY.

...SOUTH CENTRAL NEBRASKA...

CITY           SKY/WX    TMP DP  RH WIND       PRES   REMARKS
GRAND ISLAND   CLEAR     67  59  75 N10       30.08R
HASTINGS       CLEAR     67  60  78 N7        30.07R
KEARNEY        CLEAR     63  57  82 NW8       30.10R
ORD            CLEAR     61  53  75 VRB5      30.10R
YORK           CLEAR     66  66 100 N7        30.05S
AURORA         CLEAR     66  66 100 N8        30.07R
LEXINGTON      CLEAR     65  62  88 N8        30.12R
HOLDREGE       CLEAR     64  60  88 N7        30.09R
HEBRON         CLEAR     69  66  90 CALM      30.03R FOG

...NEBRASKA PANHANDLE...

CITY           SKY/WX    TMP DP  RH WIND       PRES   REMARKS
CHADRON        CLEAR     52  45  77 SW6       30.25R
ALLIANCE       CLEAR     50  45  83 W3        30.26R
SCOTTSBLUFF    CLEAR     59  49  69 SE3       30.27R
SIDNEY         PTCLDY    61  56  83 N5        30.27R

...WESTERN AND NORTH CENTRAL NEBRASKA...

CITY           SKY/WX    TMP DP  RH WIND       PRES   REMARKS
VALENTINE      CLEAR     51  47  86 W6        30.17R
AINSWORTH      CLEAR     55  49  79 W6        30.16R
ONEILL         PTCLDY    62  49  63 NW12      30.10S
BROKEN BOW     CLEAR     59  54  83 N6        30.15R
IMPERIAL       CLEAR     63  59  87 N7        30.18R
NORTH PLATTE   CLEAR     63  54  72 N12       30.17R
MCCOOK         PTCLDY    64  59  83 NW3       30.12R

...EASTERN NEBRASKA...

CITY           SKY/WX    TMP DP  RH WIND       PRES   REMARKS
NORFOLK        PTCLDY    61  56  83 W7        30.05R
SO SIOUX CITY  CLEAR     60  58  92 W3        29.99S
COLUMBUS       CLEAR     64  57  77 NW9       30.05R
ALBION         CLEAR     61  56  83 CALM      30.08S
OMAHA EPPLEY   CLEAR     68  65  90 N8        29.98R FOG
OFFUTT AFB     CLEAR     70  70 100 NW7       29.97R
MILLARD        CLEAR     72  68  89 NW6       29.99R
LINCOLN        CLEAR     72  68  87 NW8       30.02R
NEBRASKA CITY  CLEAR     69  69 100 W6        29.99R FOG
BEATRICE       CLEAR     67  66  97 NW3       30.00R FOG
FALLS CITY     NOT AVBL

...NORTHERN KANSAS...

CITY           SKY/WX    TMP DP  RH WIND       PRES   REMARKS
GOODLAND       MOCLDY    65  61  87 S5        30.21R
HILL CITY      MOCLDY    68  64  87 N5        30.09R
NORTON         SUNNY     61  55  82 NW6       30.10R
PHILLIPSBURG   CLEAR     68  63  83 W3        30.07R
SMITH CENTER   PTCLDY    70  64  83 CALM      30.06R
HAYS           MOCLDY    77  68  73 NE16      30.05F
RUSSELL        MOCLDY    74  70  87 NE8       30.05F
CONCORDIA      CLEAR     71  71 100 N3        30.02R FOG
SALINA         MOCLDY    80  74  81 N13       30.00R
TOPEKA         CLEAR     78  75  90 N8        29.96R



USA.gov is the U.S. government's official web portal to all federal, state and local government web resources and services.